| time (UTC) | temp F | wind direction | speed MPH | gust MPH | rain 1hr in | rain 24hr in | rain mn in | humidity % | barometer mb |
| 20260506044637 | 46 | 96 | 3.0 | 6.0 | 0.05 | 0.20 | 0.04 | 94 | 1009.8 |
| 20260506043047 | 46 | 92 | 6.0 | 10.0 | 0.04 | 0.19 | 0.03 | 94 | 1009.4 |
| 20260506041558 | 46 | 91 | 3.0 | 6.0 | 0.03 | 0.18 | 0.02 | 94 | 1009.8 |
| 20260506040047 | 46 | 52 | 3.0 | 6.0 | 0.01 | 0.16 | 0.00 | 94 | 1009.8 |
| 20260506034619 | 46 | 0 | 0.0 | 0.0 | 0.00 | 0.15 | 0.15 | 93 | 1010.2 |
| 20260506033043 | 46 | 0 | 1.0 | 3.0 | 0.01 | 0.15 | 0.15 | 94 | 1009.7 |
| 20260506031544 | 46 | 0 | 1.0 | 4.0 | 0.02 | 0.15 | 0.15 | 93 | 1009.8 |
| 20260506030044 | 46 | 223 | 1.0 | 3.0 | 0.03 | 0.15 | 0.15 | 93 | 1010.0 |
| 20260506024548 | 46 | 223 | 2.0 | 5.0 | 0.04 | 0.15 | 0.15 | 93 | 1010.1 |
| 20260506023101 | 46 | 223 | 3.0 | 5.0 | 0.03 | 0.14 | 0.14 | 93 | 1010.3 |
| 20260506021543 | 46 | 223 | 0.0 | 3.0 | 0.03 | 0.13 | 0.13 | 92 | 1010.4 |
| 20260506020047 | 46 | 0 | 0.0 | 0.0 | 0.02 | 0.12 | 0.12 | 92 | 1010.4 |
| 20260506014544 | 46 | 0 | 0.0 | 0.0 | 0.03 | 0.11 | 0.11 | 92 | 1010.4 |
| 20260506013046 | 45 | 0 | 0.0 | 0.0 | 0.04 | 0.11 | 0.11 | 92 | 1010.2 |
| 20260506011603 | 45 | 0 | 0.0 | 2.0 | 0.03 | 0.10 | 0.10 | 91 | 1009.9 |
| 20260506010056 | 45 | 0 | 0.0 | 4.0 | 0.04 | 0.10 | 0.10 | 91 | 1009.7 |
| 20260506004602 | 45 | 223 | 2.0 | 4.0 | 0.02 | 0.08 | 0.08 | 91 | 1009.5 |
| 20260506003056 | 45 | 223 | 2.0 | 4.0 | 0.02 | 0.07 | 0.07 | 91 | 1009.3 |
| 20260506001552 | 45 | 240 | 3.0 | 8.0 | 0.04 | 0.07 | 0.07 | 90 | 1009.1 |
| 20260506000047 | 45 | 280 | 7.0 | 10.0 | 0.04 | 0.06 | 0.06 | 90 | 1009.0 |
| 20260505234614 | 45 | 292 | 7.0 | 12.0 | 0.06 | 0.06 | 0.06 | 90 | 1009.1 |
| 20260505233045 | 45 | 298 | 10.0 | 13.0 | 0.05 | 0.05 | 0.05 | 90 | 1009.3 |
| 20260505231548 | 45 | 287 | 9.0 | 13.0 | 0.03 | 0.03 | 0.03 | 89 | 1008.9 |
| 20260505230046 | 45 | 287 | 11.0 | 16.0 | 0.02 | 0.02 | 0.02 | 88 | 1008.9 |
| 20260505224546 | 46 | 306 | 14.0 | 19.0 | 0.00 | 0.00 | 0.00 | 86 | 1008.6 |
| 20260505223039 | 47 | 281 | 12.0 | 18.0 | 0.00 | 0.00 | 0.00 | 86 | 1008.5 |
| 20260505221544 | 48 | 281 | 12.0 | 19.0 | 0.00 | 0.00 | 0.00 | 84 | 1007.8 |
| 20260505220059 | 50 | 288 | 13.0 | 17.0 | 0.00 | 0.00 | 0.00 | 83 | 1007.5 |
| 20260505214543 | 50 | 281 | 12.0 | 16.0 | 0.00 | 0.00 | 0.00 | 84 | 1006.8 |
| 20260505213041 | 51 | 292 | 13.0 | 19.0 | 0.00 | 0.00 | 0.00 | 82 | 1006.3 |
| 20260505211551 | 53 | 279 | 12.0 | 14.0 | 0.00 | 0.00 | 0.00 | 82 | 1006.1 |
| 20260505210045 | 54 | 275 | 10.0 | 14.0 | 0.00 | 0.00 | 0.00 | 81 | 1005.7 |
| 20260505204547 | 53 | 286 | 9.0 | 12.0 | 0.00 | 0.00 | 0.00 | 83 | 1005.4 |
| 20260505203042 | 53 | 286 | 11.0 | 13.0 | 0.00 | 0.00 | 0.00 | 84 | 1005.4 |
| 20260505201547 | 51 | 270 | 10.0 | 14.0 | 0.00 | 0.00 | 0.00 | 87 | 1005.4 |
| 20260505200045 | 51 | 283 | 11.0 | 15.0 | 0.00 | 0.00 | 0.00 | 86 | 1005.5 |
| 20260505194547 | 51 | 285 | 12.0 | 16.0 | 0.00 | 0.00 | 0.00 | 85 | 1005.3 |
| 20260505193047 | 51 | 275 | 12.0 | 22.0 | 0.00 | 0.00 | 0.00 | 84 | 1005.0 |
| 20260505191552 | 55 | 314 | 22.0 | 29.0 | 0.00 | 0.00 | 0.00 | 76 | 1004.8 |
| 20260505190042 | 64 | 294 | 20.0 | 32.0 | 0.00 | 0.00 | 0.00 | 66 | 1004.3 |
| 20260505184545 | 67 | 263 | 19.0 | 31.0 | 0.00 | 0.00 | 0.00 | 63 | 1004.1 |
| 20260505183045 | 67 | 227 | 15.0 | 27.0 | 0.00 | 0.00 | 0.00 | 64 | 1004.0 |
| 20260505181546 | 66 | 251 | 25.0 | 34.0 | 0.00 | 0.00 | 0.00 | 64 | 1004.2 |
| 20260505180052 | 66 | 244 | 20.0 | 33.0 | 0.00 | 0.00 | 0.00 | 63 | 1003.8 |
| 20260505174606 | 67 | 248 | 21.0 | 31.0 | 0.00 | 0.00 | 0.00 | 65 | 1004.2 |
| 20260505173046 | 66 | 271 | 17.0 | 27.0 | 0.00 | 0.00 | 0.00 | 67 | 1003.7 |
| 20260505171546 | 64 | 253 | 13.0 | 30.0 | 0.00 | 0.00 | 0.00 | 69 | 1003.6 |
| 20260505170108 | 60 | 265 | 16.0 | 27.0 | 0.00 | 0.00 | 0.00 | 75 | 1003.7 |
| 20260505164549 | 57 | 294 | 13.0 | 20.0 | 0.00 | 0.00 | 0.00 | 77 | 1003.9 |
| 20260505163046 | 56 | 280 | 12.0 | 19.0 | 0.00 | 0.00 | 0.00 | 78 | 1003.9 |
| 20260505161553 | 58 | 292 | 15.0 | 19.0 | 0.00 | 0.00 | 0.00 | 73 | 1003.6 |
| 20260505153056 | 71 | 240 | 14.0 | 25.0 | 0.00 | 0.00 | 0.00 | 59 | 1002.6 |
| 20260505151551 | 71 | 254 | 12.0 | 20.0 | 0.00 | 0.00 | 0.00 | 60 | 1002.8 |
| 20260505124546 | 70 | 213 | 12.0 | 24.0 | 0.00 | 0.00 | 0.00 | 61 | 1002.0 |
| 20260505123109 | 69 | 226 | 14.0 | 22.0 | 0.00 | 0.00 | 0.00 | 62 | 1002.0 |
| 20260505121549 | 69 | 234 | 11.0 | 20.0 | 0.00 | 0.00 | 0.00 | 63 | 1002.0 |
| 20260505120048 | 68 | 198 | 13.0 | 23.0 | 0.00 | 0.00 | 0.00 | 63 | 1001.9 |
| 20260505114606 | 67 | 225 | 12.0 | 22.0 | 0.00 | 0.00 | 0.00 | 64 | 1001.9 |
| 20260505113042 | 66 | 227 | 10.0 | 21.0 | 0.00 | 0.00 | 0.00 | 66 | 1001.7 |
| 20260505111602 | 64 | 182 | 11.0 | 19.0 | 0.00 | 0.00 | 0.00 | 69 | 1001.3 |
| 20260505101541 | 62 | 194 | 9.0 | 16.0 | 0.00 | 0.00 | 0.00 | 73 | 1001.0 |
| 20260505100048 | 62 | 215 | 11.0 | 19.0 | 0.00 | 0.00 | 0.00 | 73 | 1001.0 |
| 20260505094547 | 62 | 177 | 12.0 | 19.0 | 0.00 | 0.00 | 0.00 | 74 | 1000.8 |
| 20260505093043 | 62 | 186 | 13.0 | 19.0 | 0.00 | 0.00 | 0.00 | 75 | 1000.9 |
| 20260505091545 | 61 | 171 | 12.0 | 21.0 | 0.00 | 0.00 | 0.00 | 76 | 1001.3 |
| 20260505090052 | 61 | 188 | 8.0 | 15.0 | 0.00 | 0.00 | 0.00 | 77 | 1001.6 |
| 20260505084545 | 62 | 175 | 7.0 | 12.0 | 0.00 | 0.00 | 0.00 | 76 | 1001.6 |
| 20260505083059 | 62 | 176 | 7.0 | 14.0 | 0.00 | 0.00 | 0.00 | 75 | 1001.7 |
| 20260505081551 | 62 | 213 | 7.0 | 14.0 | 0.00 | 0.00 | 0.00 | 76 | 1001.8 |
| 20260505080046 | 62 | 210 | 9.0 | 17.0 | 0.00 | 0.00 | 0.00 | 75 | 1001.9 |
| 20260505074545 | 63 | 239 | 12.0 | 23.0 | 0.00 | 0.00 | 0.00 | 74 | 1002.1 |
| 20260505073043 | 65 | 207 | 10.0 | 24.0 | 0.00 | 0.00 | 0.00 | 68 | 1001.9 |
| 20260505071541 | 66 | 202 | 10.0 | 20.0 | 0.00 | 0.00 | 0.00 | 65 | 1002.1 |
| 20260505070053 | 65 | 220 | 9.0 | 16.0 | 0.00 | 0.00 | 0.00 | 65 | 1002.1 |
| 20260505064557 | 66 | 220 | 10.0 | 17.0 | 0.00 | 0.00 | 0.00 | 64 | 1002.0 |
| 20260505063050 | 66 | 236 | 11.0 | 20.0 | 0.00 | 0.00 | 0.00 | 64 | 1001.9 |
| 20260505061544 | 66 | 191 | 10.0 | 18.0 | 0.00 | 0.00 | 0.00 | 63 | 1002.0 |
| 20260505060049 | 66 | 207 | 11.0 | 18.0 | 0.00 | 0.00 | 0.00 | 63 | 1001.8 |